Regional Weather Roundup
Issued by NWS

Home | Current Version | Previous Version | Text Only | Print | Product List | Glossary Off
Versions: 1 2 3 4 5 6 7 8 9 10 11 12 13 14 15 16 17 18 19 20 21 22 23 24 25 26 27 28 29 30 31 32 33 34 35 36 37 38 39 40 41 42 43 44 45 46 47 48 49 50

421
ASUS43 KIND 282059
RWRIN

WEATHER ROUNDUP FOR INDIANA
NATIONAL WEATHER SERVICE INDIANAPOLIS IN
500 PM EDT TUE MAR 28 2017

NOTE: "FAIR" INDICATES FEW OR NO CLOUDS BELOW 12,000 FEET WITH NO
SIGNIFICANT WEATHER AND/OR OBSTRUCTIONS TO VISIBILITY.

* - STATION DOES NOT REPORT WEATHER SUCH AS PRECIPITATION OR FOG.

+ - STATION NOT QUALITY CONTROLLED BY THE NATIONAL WEATHER SERVICE.
    USE DATA WITH CAUTION...ESPECIALLY DEWPOINT AND RELATIVE
    HUMIDITY OBSERVATIONS.

INZ001>003-010>013-019-020-282200-
NORTHWEST INDIANA

CITY           SKY/WX    TMP DP  RH WIND       PRES   REMARKS
GARY /AIRPORT/ CLOUDY    43  37  81 N12       30.16R
MONTICELLO +   CLOUDY    48  41  76 NW9       30.10S
VALPARAISO     CLOUDY    43  39  86 N12       30.13S

$$

LMZ046-743>745-282200-
SOUTHERN LAKE MICHIGAN

STATION/POSITION TIME  TEMP    WIND        PRES    WAVE
                       AIR SEA DIR/SP/G            HT
                 (UTC) (F)     (DEG/KT/KT) (MB)    (FT)
BURNS HARBOR     2040   38     360/ 10/ 12 1021.3R
MICHIGAN CITY    2000   39     350/ 11/ 12   N/A

$$

INZ004-005-014>016-021>024-282200-
NORTH CENTRAL INDIANA

CITY           SKY/WX    TMP DP  RH WIND       PRES   REMARKS
GOSHEN         CLOUDY    49  40  71 N9        30.10R
SOUTH BEND     CLOUDY    44  40  85 N8        30.12R

$$

INZ006>009-017-018-025>027-282200-
NORTHEAST INDIANA

CITY           SKY/WX    TMP DP  RH WIND       PRES   REMARKS
ANGOLA *+      CLOUDY    46  34  61 NE7       30.08S
FORT WAYNE     CLOUDY    51  44  77 NE7       30.08R
KENDALLVILLE + CLOUDY    48  42  79 N8        30.09R

$$

INZ028-029-035-036-043>045-051>053-282200-
WEST CENTRAL INDIANA

CITY           SKY/WX    TMP DP  RH WIND       PRES   REMARKS
CRAWFORDSVL +  CLOUDY    53  46  78 N9        30.08S
GREENCASTLE +  CLOUDY    54  45  71 N6        30.08R
LAFAYETTE      CLOUDY    50  43  77 N9        30.09S
TERRE HAUTE    CLOUDY    59  46  62 N7        30.07R

$$

INZ030>032-037>040-046>048-054>057-064-065-282200-
CENTRAL INDIANA

CITY           SKY/WX    TMP DP  RH WIND       PRES   REMARKS
COLUMBUS       CLOUDY    55  52  88 N9        30.05S
INDIANAPOLIS   CLOUDY    56  46  69 N10       30.06S
-EAGLE CREEK   CLOUDY    56  46  69 N7        30.06R
KOKOMO +       CLOUDY    51  45  79 N9        30.09R
SHELBYVILLE    CLOUDY    57  48  72 N8        30.05R

$$

INZ033-034-041-042-049-050-058-059-282200-
EAST CENTRAL INDIANA

CITY           SKY/WX    TMP DP  RH WIND       PRES   REMARKS
MUNCIE         CLOUDY    54  47  77 NE5       30.06R
RICHMOND +     CLOUDY    52  46  82 N8        30.05S FOG

$$

INZ060-061-067>069-081>083-085>088-282200-
SOUTHWEST INDIANA

CITY           SKY/WX    TMP DP  RH WIND       PRES   REMARKS
EVANSVILLE     CLOUDY    62  51  67 N3        30.05F
HUNTINGBURG *+ PTSUNNY   61  54  77 NW10      30.05R

$$

INZ062-063-066-070>080-084-089>092-282200-
SOUTH CENTRAL AND SOUTHEAST INDIANA

CITY           SKY/WX    TMP DP  RH WIND       PRES   REMARKS
BLOOMINGTON    CLOUDY    58  47  66 N9        30.05S
MADISON *+     CLOUDY    59  50  72 N6        30.06R
SEYMOUR +      CLOUDY    59  50  72 NE12      30.04S

$$





USA.gov is the U.S. government's official web portal to all federal, state and local government web resources and services.